RH
8 9 9 9 9 9 9 10 10 11 11 12 12 12 12 13 13 14 14 14 14 13 14 14 12 14 15 15 15 15 13 13 14 14 14 14 14 15 15 15 15 15 16 16 14 14 14 13 13 12 11 10 10 11 12 12 13 13 12 11 11 11 10 10 11 12 13 14 15 15 15 15 15 14 15 15 15 16 16 16 15 15 16 16 16 17
9 10 10 11 11 11 11 11 12 13 13 13 13 14 15 15 15 15 15 15 15 14 14 14 12 13 14 14 14 14 13 13 14 13 13 14 14 15 15 15 15 15 16 16 16 16 16 16 17 16 16 15 14 14 13 13 14 13 12 12 12 12 11 11 12 13 13 14 15 15 15 15 15 15 16 17 18 18 18 18 18 18 19 19 20 20
10 11 11 12 12 13 14 14 15 15 15 16 15 15 15 15 15 15 15 14 14 13 13 13 12 13 15 13 13 13 12 13 13 12 13 13 13 13 13 14 14 15 16 16 16 16 16 16 17 18 19 20 20 19 19 18 18 18 17 17 18 17 17 17 17 18 18 19 20 20 20 20 20 21 21 22 22 22 24 24 24 24 24 24 24 25
12 13 14 14 15 16 15 16 16 16 16 16 15 15 14 15 14 14 15 14 15 14 14 14 13 15 17 16 15 15 14 15 15 14 14 14 13 14 13 13 14 14 15 16 18 19 20 20 19 19 21 21 21 21 22 25 25 25 25 25 24 23 23 23 24 25 26 26 27 26 27 27 27 27 28 28 29 30 31 31 31 30 29 29 29 29
14 14 15 15 15 15 15 15 15 15 15 15 15 15 15 17 16 17 17 17 18 18 18 18 17 17 20 20 19 19 19 18 18 17 17 17 16 16 16 17 17 17 17 18 19 20 21 22 23 23 22 22 21 21 22 25 26 28 29 29 28 27 28 28 28 29 30 30 29 29 29 29 29 31 32 32 34 35 34 34 33 32 32 31 31 31
15 15 15 15 15 14 14 15 14 15 15 16 18 17 18 20 20 21 22 22 22 22 23 23 21 20 20 24 26 24 24 23 23 22 22 21 20 20 20 20 20 20 20 20 20 20 20 20 22 23 24 24 24 24 23 23 23 24 26 27 30 31 33 34 34 34 33 33 33 32 32 32 33 33 34 35 37 36 34 34 34 32 33 33 34 35
15 14 14 14 15 15 16 16 17 17 17 19 21 22 23 23 25 26 26 27 26 26 26 24 26 24 20 25 30 30 30 29 28 28 26 26 26 25 26 26 25 23 23 23 23 23 22 23 23 24 25 26 27 29 27 25 25 25 25 27 32 36 39 38 36 35 34 34 33 33 32 33 32 32 35 38 39 38 37 37 36 37 38 38 39 39
16 15 15 16 16 17 18 19 20 20 21 22 24 26 27 28 30 29 30 32 30 30 29 26 31 31 22 22 28 33 37 36 35 34 31 30 32 32 33 34 33 30 27 27 27 26 24 24 25 26 27 28 30 32 31 30 31 30 29 30 34 38 38 35 33 32 31 30 29 29 29 28 28 29 33 35 34 34 34 35 37 40 40 40 41 39
16 16 17 16 17 20 21 22 23 24 25 26 28 29 31 34 34 33 35 36 36 35 30 29 37 36 25 22 27 33 41 46 45 42 38 36 37 39 40 41 41 39 36 35 36 36 31 27 27 27 28 28 30 32 34 34 34 33 31 31 36 41 38 34 34 34 33 32 31 31 31 31 31 32 34 34 33 32 32 33 36 39 40 42 42 40
18 18 19 18 20 23 23 25 27 28 30 31 32 32 35 38 38 39 40 40 43 39 32 34 41 39 26 19 26 35 43 51 53 50 47 46 47 49 48 47 46 44 44 46 48 49 46 41 37 34 32 32 32 31 33 34 35 35 33 32 36 40 38 35 36 37 37 37 36 37 37 37 38 38 38 38 37 36 36 37 39 41 43 45 45 43
20 20 20 20 23 24 25 29 30 32 34 35 37 37 39 41 40 43 43 44 47 40 33 38 43 44 31 16 24 38 46 54 57 56 58 59 60 62 58 53 52 52 51 54 58 58 58 55 52 48 45 43 41 37 35 35 36 37 37 36 37 39 40 40 43 44 44 44 43 43 43 43 43 43 42 41 41 41 41 41 43 45 46 47 47 47
22 23 23 23 24 26 29 32 33 35 37 38 40 41 41 42 42 45 44 47 49 41 37 41 44 47 35 18 26 42 50 57 60 59 63 66 68 71 71 64 59 58 59 63 69 69 65 62 61 60 59 58 55 51 48 45 41 39 38 39 39 41 44 45 47 48 49 50 50 50 49 48 47 46 45 45 44 45 44 44 46 47 48 48 49 50
23 25 25 25 25 28 31 33 35 36 38 39 41 42 43 44 44 45 45 47 48 44 42 45 49 47 32 23 34 47 54 60 63 63 66 69 71 73 77 73 65 66 69 72 78 81 76 71 70 69 68 68 67 65 63 60 56 51 47 43 42 42 43 43 43 44 45 47 49 51 53 53 53 51 50 50 49 49 49 49 49 49 50 51 52 52
22 24 26 27 28 30 31 32 34 35 37 39 39 41 42 43 45 46 47 48 47 46 47 50 53 46 33 32 44 53 58 63 68 70 70 71 73 73 73 70 65 67 68 68 74 81 80 77 79 78 73 71 71 72 70 68 67 65 62 59 56 55 55 55 54 52 49 48 48 49 51 52 54 56 57 58 59 59 58 57 56 54 53 52 53 54
20 21 24 27 28 29 31 32 34 35 37 38 38 40 41 44 49 50 49 50 51 52 53 55 55 48 41 44 52 61 66 70 73 75 74 73 74 73 69 65 61 57 54 54 60 67 70 73 81 85 82 77 74 72 71 70 71 70 70 70 70 70 70 70 70 68 66 63 60 57 56 55 56 57 58 60 62 63 63 64 64 63 61 59 58 58
21 21 24 27 28 30 31 33 35 36 37 38 39 43 45 48 53 55 55 56 59 61 59 58 57 52 49 51 60 66 65 65 69 71 72 72 71 70 67 63 61 55 50 49 52 56 60 68 77 82 85 84 79 75 72 71 70 68 69 72 74 76 77 76 76 78 80 80 77 74 70 68 66 64 63 62 62 63 64 65 66 67 68 68 68 67
23 21 23 26 28 30 32 35 38 39 42 45 48 51 53 55 57 61 64 64 68 69 66 62 58 54 53 53 57 58 51 51 60 65 68 69 68 70 69 68 67 63 60 58 58 60 62 68 73 76 82 87 86 83 78 74 71 67 66 68 72 77 78 77 79 82 85 87 87 86 83 81 79 77 75 73 72 71 71 71 69 69 71 73 75 75
28 25 24 27 29 31 33 37 39 43 48 53 55 57 58 59 61 65 67 66 68 69 66 63 58 56 57 52 47 47 45 47 54 57 61 64 66 67 67 68 69 68 67 65 65 66 66 69 72 72 77 83 86 85 81 77 73 68 65 64 68 73 78 81 82 82 84 88 91 92 91 90 89 87 86 85 85 84 82 81 79 77 77 78 79 79
35 31 26 26 30 32 34 38 42 47 53 55 55 56 56 56 56 57 58 58 59 59 58 57 54 53 55 50 44 44 44 44 45 46 50 56 61 63 62 63 65 66 66 67 68 68 68 68 69 69 71 74 76 78 78 76 73 69 66 63 62 67 73 80 83 84 86 89 92 95 95 94 94 92 92 92 92 93 92 92 92 90 88 87 86 86
41 40 35 32 35 37 37 40 45 48 50 49 48 47 46 43 42 43 44 46 48 51 51 49 47 46 46 43 40 40 38 38 39 39 41 46 52 58 60 59 60 61 62 63 64 66 67 66 65 65 66 67 68 69 70 71 70 67 64 62 62 64 68 75 79 83 86 90 93 95 96 96 97 96 97 97 96 96 97 98 99 99 98 97 95 94
42 42 40 38 40 41 41 43 46 46 43 41 39 38 36 34 35 38 38 38 42 47 49 46 44 42 40 38 37 37 37 37 38 38 38 39 43 50 56 59 60 61 62 62 62 61 62 63 63 63 63 63 64 64 64 64 63 62 60 59 59 61 66 73 78 79 82 86 91 93 95 97 98 98 99 98 98 97 98 100 101 101 102 102 101 100
38 40 40 40 39 38 37 36 36 34 32 30 30 30 31 31 33 36 36 36 37 41 44 46 47 46 42 41 41 41 42 42 42 42 42 43 44 46 53 59 64 68 68 68 69 66 62 60 60 61 62 63 63 62 62 61 60 59 57 55 54 55 59 67 74 77 78 80 85 90 94 97 98 99 100 100 100 99 99 101 102 102 102 102 102 101
29 29 27 27 27 28 30 31 34 37 39 41 43 43 45 46 45 47 47 47 50 55 56 55 57 59 58 58 59 59 58 59 59 58 56 56 55 53 54 57 67 79 84 83 83 83 79 72 66 63 61 63 64 63 63 62 61 59 55 53 53 53 55 60 66 72 75 78 81 85 90 95 98 100 100 100 101 101 102 102 102 102 102 102 101 101
27 32 38 45 49 50 52 55 61 67 69 71 72 74 77 79 79 81 83 84 86 85 85 84 82 83 85 86 87 84 81 80 80 79 76 74 71 68 66 66 74 89 98 98 96 96 97 95 90 84 74 66 66 66 66 66 64 62 59 57 55 55 56 60 64 69 73 78 83 88 91 95 99 101 101 101 101 102 103 104 103 102 101 101 100 101
61 63 65 66 58 45 36 35 38 40 41 41 41 44 47 48 51 63 80 98 100 91 94 103 100 94 97 101 101 99 97 97 97 96 94 92 90 88 87 86 90 98 103 104 103 102 103 102 101 98 88 78 75 74 73 73 70 67 64 61 58 58 59 62 67 71 75 79 86 94 97 99 101 102 102 102 102 103 103 104 104 102 100 100 100 100
46 38 31 26 19 11 8 7 7 8 8 8 8 9 10 9 11 22 42 66 78 77 88 103 105 101 102 104 103 101 100 100 100 101 101 100 100 100 101 101 101 103 103 103 104 104 106 106 103 101 98 92 88 85 81 78 74 71 69 68 68 69 70 73 76 80 83 87 92 98 101 102 102 102 102 103 104 103 103 103 103 101 100 100 100 100
9 7 5 6 5 5 5 5 5 5 5 5 4 4 5 5 5 9 16 29 41 48 54 63 76 87 87 87 93 97 101 103 103 102 101 101 101 100 100 100 101 102 101 101 102 102 104 105 104 104 103 102 100 98 95 92 89 86 85 86 88 89 90 92 92 93 95 97 100 102 103 102 102 103 103 104 104 103 102 101 101 101 101 101 101 101
4 4 4 5 5 5 6 6 6 6 6 6 6 5 5 5 5 6 9 11 15 19 17 16 28 41 40 41 51 60 70 82 90 93 94 96 98 100 101 101 100 101 101 100 101 101 100 101 102 102 102 102 102 102 102 102 102 101 101 101 102 102 102 102 101 101 100 102 103 103 102 101 102 102 102 101 101 101 100 100 101 101 101 100 101 101
5 5 6 6 6 6 7 7 6 6 6 6 6 6 6 6 6 5 6 6 6 9 10 9 12 16 17 22 30 36 41 47 52 55 59 64 69 76 84 91 96 100 101 101 101 101 100 100 100 100 100 100 101 100 101 101 101 101 101 101 101 101 101 101 101 101 100 101 102 101 101 101 100 101 100 100 101 100 100 101 101 101 101 101 101 101
7 7 7 7 7 7 7 8 8 7 7 7 7 7 7 6 7 6 6 7 7 7 9 10 11 12 15 22 30 34 37 38 41 50 62 71 76 76 78 84 92 98 100 100 100 100 101 101 100 100 100 100 100 100 100 101 100 100 100 100 100 100 100 100 100 100 100 100 101 101 101 101 100 101 101 100 100 100 100 100 100 100 101 100 100 100
8 8 9 9 9 9 10 10 10 9 9 9 8 8 8 7 8 8 8 8 8 8 9 9 11 11 14 21 28 36 45 53 63 77 90 97 100 98 93 93 98 101 101 101 101 101 100 100 100 100 100 100 100 101 100 100 100 100 100 100 100 100 100 100 100 100 100 100 100 100 100 100 101 100 100 101 101 100 100 100 101 101 98 95 96 99
11 11 11 11 11 11 12 12 12 12 11 11 10 10 10 10 10 10 10 10 9 10 10 10 10 9 10 17 29 49 73 90 95 97 98 99 101 101 99 98 99 99 98 98 98 98 98 100 101 101 101 101 100 100 100 101 100 100 101 100 100 100 100 100 100 100 100 100 100 101 101 100 100 101 101 103 102 100 100 101 99 95 89 89 94 101
12 12 13 14 14 13 14 15 15 15 14 13 13 12 12 13 12 12 12 12 12 12 12 12 12 11 10 11 15 27 50 72 86 95 100 101 100 98 98 100 100 98 98 96 93 90 93 99 103 102 101 101 101 100 100 100 100 100 100 100 100 100 100 100 100 100 100 101 101 100 100 100 101 102 102 103 103 102 101 99 92 86 84 88 96 102
15 15 16 17 17 16 17 17 17 17 17 16 16 16 15 15 15 14 14 14 15 15 15 15 14 14 13 13 12 11 15 27 47 71 93 104 104 100 98 99 99 100 100 98 93 92 96 100 101 100 100 100 100 100 100 100 101 101 101 101 101 101 101 101 101 101 102 103 103 102 101 102 104 104 104 103 102 100 96 90 85 82 83 90 97 101
17 18 19 20 20 20 20 20 19 19 19 19 19 18 18 18 18 17 17 18 19 19 19 19 18 18 17 16 16 15 14 15 21 36 58 74 82 85 89 92 96 98 96 91 86 88 95 100 100 100 100 101 100 100 100 100 100 99 99 100 100 100 100 100 99 99 101 102 103 103 102 102 102 102 100 98 95 92 89 86 85 86 89 95 100 102
20 21 21 22 22 22 22 22 22 22 22 23 22 21 21 22 23 23 21 22 25 25 24 23 22 22 23 22 21 20 19 18 18 25 37 44 48 54 62 68 76 80 83 85 84 85 90 93 94 94 95 97 98 99 100 100 101 101 101 102 102 102 102 102 100 99 100 101 101 101 100 97 94 92 91 91 91 91 92 92 92 93 94 98 100 100
22 22 23 24 24 24 24 24 25 24 24 25 25 26 27 29 30 29 24 23 27 30 29 28 27 27 27 27 28 27 25 22 20 29 43 47 46 48 51 54 56 55 55 59 62 66 72 76 78 80 82 84 86 87 88 89 90 91 93 94 96 98 100 102 102 101 99 98 96 95 93 90 88 87 89 92 95 96 96 96 94 92 91 92 93 96
24 25 26 26 26 26 26 27 27 25 25 27 29 32 34 37 39 39 33 30 34 37 37 36 35 34 35 36 35 34 32 28 23 26 38 46 49 54 58 59 60 58 54 50 47 45 46 48 49 51 52 56 60 63 66 69 71 72 74 75 77 80 83 86 89 89 89 87 85 83 82 80 81 83 86 89 91 90 88 84 80 78 79 83 89 95
24 26 27 27 27 29 30 30 31 30 29 30 32 36 40 43 45 46 44 41 43 47 48 48 47 47 46 45 44 42 39 36 30 27 32 40 46 54 59 61 62 62 61 59 57 54 52 50 48 45 41 38 36 36 38 41 46 50 53 58 62 64 66 68 70 71 71 72 71 71 70 70 71 74 76 78 79 77 74 67 61 57 61 75 91 99
25 26 27 28 29 29 30 31 33 36 37 36 37 41 45 48 51 53 50 47 49 56 60 59 56 56 58 55 53 52 48 44 39 33 32 36 44 54 62 64 61 57 52 49 49 53 58 63 68 67 63 55 47 39 32 28 26 26 27 30 35 38 42 45 48 51 54 56 58 60 64 69 72 73 73 72 69 65 60 53 45 38 39 58 87 102
24 25 26 27 28 29 30 33 36 39 41 42 44 47 50 54 60 62 58 54 56 62 67 67 65 67 70 67 63 61 57 51 46 41 37 40 49 60 67 66 59 54 49 44 44 48 54 66 78 81 78 72 63 52 42 36 31 27 22 19 18 18 20 22 24 27 31 34 38 43 49 61 74 82 80 71 61 55 50 42 35 29 26 33 56 82
24 25 25 27 29 28 30 35 37 39 42 45 49 56 63 68 71 68 61 61 68 72 74 78 81 83 83 80 75 71 67 60 52 47 44 47 56 66 70 67 60 53 50 47 47 54 62 72 85 92 89 81 70 58 49 44 41 34 25 20 19 17 15 15 15 14 16 17 19 23 27 35 52 73 83 77 63 54 49 42 35 31 28 25 27 42
24 25 26 28 30 31 33 39 43 43 45 51 56 63 70 75 77 73 66 68 81 91 92 91 92 94 93 89 84 80 76 68 59 52 48 51 61 70 73 71 65 58 51 46 47 57 71 80 90 96 94 84 74 65 58 55 53 47 36 24 21 19 18 17 17 15 15 14 14 15 17 20 29 49 70 80 79 73 68 62 54 46 41 37 32 29
26 28 29 31 34 37 40 49 56 57 58 67 78 83 84 84 86 88 86 85 91 101 104 101 98 100 102 100 95 89 83 75 66 57 52 53 63 73 75 73 70 63 56 51 52 63 78 87 93 95 92 85 78 73 68 64 62 60 50 36 27 24 23 21 21 21 20 20 19 18 19 19 22 31 46 62 73 80 82 81 77 70 60 53 48 43
26 29 32 34 39 44 50 62 70 67 66 80 96 101 99 97 98 100 101 101 100 103 105 105 102 101 102 104 100 92 86 80 71 63 59 59 66 74 75 71 67 63 61 63 69 81 92 96 94 91 87 85 84 82 80 77 71 66 59 48 37 32 32 32 33 31 28 26 25 24 24 24 24 26 31 39 48 58 68 74 78 78 73 66 60 54
28 34 38 39 42 46 54 67 75 72 75 90 102 103 102 102 102 102 103 104 104 103 103 104 102 99 98 101 98 91 87 85 78 69 64 65 70 76 76 68 63 65 72 79 89 99 104 103 99 92 87 89 92 93 95 94 84 70 59 51 47 50 59 65 67 63 57 50 42 36 31 29 28 28 29 30 32 37 43 50 56 60 61 60 57 53
33 39 43 46 50 53 56 65 72 74 82 98 106 104 102 101 100 102 103 103 104 105 103 102 102 101 100 101 100 95 93 93 86 74 67 70 77 81 77 69 65 71 83 93 101 106 105 101 97 94 92 96 102 103 104 104 93 76 66 67 73 81 89 93 94 92 90 86 79 68 56 45 37 32 30 30 31 32 34 36 39 42 44 45 44 44
43 49 53 57 61 64 68 73 74 73 80 96 106 104 98 92 88 90 94 99 103 105 105 103 104 104 103 101 101 99 96 96 92 81 71 74 84 88 81 71 68 76 90 100 103 101 97 93 93 93 95 101 106 106 105 104 99 92 90 93 97 99 100 99 99 100 100 101 100 96 89 77 64 53 44 38 35 33 33 33 33 34 35 36 36 37
60 67 75 78 76 76 81 85 80 70 66 77 89 92 89 88 85 83 87 95 101 104 105 103 103 105 105 103 103 101 99 99 98 89 79 82 92 92 82 72 72 81 94 99 97 93 91 91 93 94 97 103 107 106 104 105 106 106 106 103 101 100 100 100 101 103 104 103 103 102 101 99 95 88 80 72 63 56 52 51 51 52 54 55 56 57
77 87 95 95 89 85 87 89 85 74 65 65 72 75 77 83 86 83 83 90 94 98 101 100 99 102 105 105 105 105 102 100 99 93 89 93 98 94 82 73 76 86 94 94 91 91 94 96 96 97 100 104 107 105 103 104 107 109 108 105 102 101 102 102 103 106 107 106 104 102 101 101 101 100 100 98 94 92 91 90 89 90 91 92 92 92
91 99 102 101 98 95 97 100 96 85 73 68 70 71 73 78 82 79 76 77 77 80 86 90 95 99 100 100 104 107 104 101 100 97 95 97 101 99 87 77 79 88 92 92 92 93 97 100 102 101 102 105 106 104 101 101 103 105 105 104 102 102 103 102 101 104 107 105 101 101 101 101 102 101 101 101 100 101 102 101 101 101 101 101 100 100
Wind_Speed
23 23 22 22 22 22 22 22 22 22 22 22 22 21 21 21 20 22 23 22 23 23 21 24 25 21 20 22 23 26 27 25 24 25 26 25 26 26 26 26 27 27 26 28 31 31 30 31 32 33 34 35 35 36 36 37 38 39 39 39 40 40 40 40 40 40 40 40 41 41 41 42 42 43 42 42 42 43 43 44 45 46 46 46 46 47
23 23 23 23 22 22 21 22 22 22 21 21 22 21 22 22 21 22 24 24 24 25 23 25 27 23 22 25 26 27 29 27 26 28 27 27 27 27 28 28 28 29 28 30 31 31 31 31 32 33 34 34 34 35 36 36 37 38 39 39 39 40 40 40 40 40 40 41 41 42 42 43 43 43 42 42 43 43 44 45 46 46 47 47 48 48
23 23 23 23 23 22 21 22 22 22 22 22 22 22 23 24 23 22 24 25 25 26 24 26 27 22 21 24 25 27 27 25 26 28 27 27 28 28 29 29 29 29 30 31 32 32 33 32 32 32 32 32 33 34 35 35 36 37 37 38 39 40 41 41 41 41 40 41 41 42 43 43 43 43 42 43 44 44 44 45 46 47 48 48 49 49
23 23 23 23 23 23 23 23 23 23 23 23 23 23 23 24 24 23 23 24 25 26 25 26 27 22 20 22 23 26 26 24 25 27 26 26 25 26 27 27 27 28 29 30 30 31 32 32 32 31 31 32 33 34 33 34 34 35 36 37 39 40 40 40 40 39 39 39 40 41 41 42 42 42 42 42 43 43 43 44 46 47 47 48 48 48
24 24 24 24 24 24 24 24 24 23 22 23 24 23 22 23 25 24 24 25 25 26 27 29 30 24 20 20 23 25 26 27 27 27 26 26 25 25 26 26 27 27 27 28 28 30 31 31 32 32 32 33 34 34 34 34 35 36 36 36 37 38 38 38 37 37 37 38 39 39 39 40 39 39 39 40 40 41 43 44 45 45 46 45 45 44
25 25 24 25 24 24 23 23 23 23 22 22 23 24 23 24 25 26 27 27 27 27 27 31 34 30 21 19 23 26 27 28 29 29 27 27 27 27 28 28 29 29 28 28 28 29 30 31 32 33 34 35 35 35 35 36 37 37 36 36 36 36 36 36 36 36 36 36 36 37 37 37 37 37 38 38 38 40 41 42 43 43 42 42 42 42
25 26 25 24 24 24 23 23 23 24 23 22 23 25 26 26 27 28 30 31 31 30 28 30 36 38 29 20 22 27 27 28 29 31 30 28 29 29 30 31 31 30 30 29 29 29 29 29 30 32 33 34 35 36 37 38 37 35 34 34 34 35 35 35 35 35 35 35 36 36 36 36 37 37 37 37 39 40 41 41 41 41 40 40 41 42
26 26 25 25 24 24 24 23 24 25 25 24 25 27 28 28 30 31 32 33 34 34 31 29 34 43 39 26 23 26 27 28 29 30 30 30 31 32 33 33 32 31 32 31 30 29 27 27 27 28 30 32 33 34 35 35 34 33 33 33 34 35 34 34 34 35 36 36 36 37 37 37 38 38 38 39 41 42 42 42 41 41 41 41 42 44
28 26 25 26 25 25 25 25 26 27 27 27 28 29 30 31 33 33 35 35 38 39 35 30 33 43 46 36 28 26 27 30 30 29 31 33 35 36 36 35 33 32 33 34 33 31 29 29 28 28 28 29 29 30 32 32 32 32 33 34 35 35 34 34 35 36 37 37 38 38 39 39 39 38 39 41 42 42 43 42 42 42 42 42 43 45
28 26 27 27 26 26 27 27 27 29 30 29 30 32 33 35 36 36 38 38 40 44 40 35 36 44 50 42 31 29 30 31 30 30 32 36 38 40 39 36 35 35 36 36 35 33 32 32 33 32 31 29 29 30 30 32 32 33 34 35 35 36 36 37 38 38 38 39 39 40 40 40 41 41 42 43 43 43 43 43 43 43 43 44 45 46
29 27 28 28 27 28 29 29 30 31 32 32 33 35 36 38 39 40 41 41 43 47 44 42 41 46 53 46 35 34 33 30 30 32 34 36 38 41 42 39 39 40 39 37 37 37 36 36 36 36 35 33 32 32 32 32 32 33 35 36 36 37 39 40 40 40 40 41 41 42 42 42 43 44 45 45 45 45 45 44 44 45 46 47 47 48
30 29 29 29 30 31 31 31 32 33 34 35 36 38 39 41 43 44 44 43 47 49 47 47 47 50 56 51 41 39 36 33 33 35 36 36 37 39 42 43 43 44 43 41 40 41 40 39 39 39 38 36 35 34 34 34 34 35 36 36 37 39 40 40 40 41 41 42 43 43 43 44 45 46 46 46 46 47 47 46 46 47 48 49 49 50
32 30 30 31 31 32 33 34 35 36 37 38 39 41 43 44 46 47 48 47 50 52 51 51 52 56 59 55 49 44 41 39 38 38 38 37 37 37 38 43 46 46 46 45 43 44 44 43 41 41 41 40 38 37 37 37 37 38 38 38 39 39 40 41 42 42 43 43 44 44 44 45 46 47 47 48 48 48 49 49 49 49 50 51 51 52
35 33 32 33 33 34 36 37 38 39 40 41 42 43 45 46 48 50 51 52 54 54 54 56 57 61 62 58 55 52 48 45 43 41 40 38 38 36 36 41 47 48 49 49 48 49 49 47 45 44 44 44 43 41 40 40 40 41 42 42 42 43 43 43 43 44 44 44 45 45 46 47 48 48 48 49 49 50 51 51 51 51 52 53 53 53
40 38 36 36 36 37 38 39 41 42 43 44 44 45 47 47 49 52 54 56 56 56 57 59 61 63 62 60 59 57 52 50 48 45 43 41 41 40 40 44 47 49 50 51 53 55 55 53 50 47 47 47 48 47 45 44 43 43 44 46 46 47 47 47 47 47 47 46 47 47 48 48 49 49 49 50 51 52 52 52 52 53 53 54 55 56
42 42 41 41 40 41 42 42 43 44 45 45 46 47 49 49 51 55 57 57 57 58 60 62 63 64 62 60 61 59 55 54 55 53 51 50 49 48 48 49 49 49 51 53 56 59 60 58 56 54 52 51 51 51 50 48 47 47 47 48 49 50 51 51 51 51 50 50 50 50 50 50 50 51 51 52 52 53 54 54 54 54 55 56 57 58
43 43 44 45 44 44 45 45 45 46 47 47 48 49 51 52 54 57 58 59 60 62 63 63 65 65 62 62 64 63 61 61 62 61 59 55 53 51 50 51 51 52 54 56 58 60 61 60 60 59 57 55 54 54 54 53 52 51 51 51 52 53 54 54 54 54 54 54 54 54 53 53 54 54 54 54 54 55 56 56 56 56 57 58 58 59
44 45 44 46 48 47 47 48 48 48 49 50 51 52 53 55 56 58 60 61 61 64 66 66 66 66 65 66 68 67 66 67 66 66 64 60 58 56 54 53 54 54 55 56 57 59 60 61 63 63 62 60 58 58 58 58 57 56 56 55 55 56 57 57 57 57 57 58 57 57 57 57 57 57 57 57 57 58 58 59 59 59 59 60 60 61
46 48 46 46 49 50 50 52 51 50 51 53 54 55 57 58 58 59 60 61 62 64 67 67 67 68 69 70 71 71 71 71 70 70 68 66 64 63 61 58 56 54 54 54 56 58 60 62 65 66 66 65 63 63 63 63 62 60 60 60 59 60 60 60 60 59 59 60 60 60 60 60 60 60 60 60 60 60 60 61 61 62 62 62 63 63
48 51 50 48 49 51 53 54 55 55 57 58 59 59 59 60 60 59 60 62 62 62 64 66 67 68 70 71 72 72 73 72 72 71 71 71 70 68 67 65 61 59 57 56 57 59 61 64 66 68 69 69 68 68 67 66 66 64 63 63 62 63 63 63 62 62 62 62 63 63 63 63 63 63 62 62 62 62 63 63 64 64 64 65 65 66
51 54 55 52 52 53 54 56 58 59 60 61 61 62 61 61 60 61 62 63 62 61 62 65 68 68 70 71 72 73 73 73 73 73 73 74 74 72 71 69 67 65 63 61 61 61 62 64 67 69 71 72 72 72 72 72 71 69 67 65 65 65 66 66 65 64 64 64 65 65 65 65 65 65 65 65 65 65 65 65 66 66 67 67 67 68
55 57 59 58 57 57 56 58 60 60 61 61 62 63 63 63 62 62 64 65 64 64 65 66 68 69 70 71 72 72 73 73 73 73 73 73 73 74 74 71 69 67 66 65 64 65 66 67 68 70 71 73 74 75 76 76 75 73 71 69 68 68 68 68 67 67 66 66 67 67 67 68 68 68 68 67 67 67 67 67 68 68 69 69 70 70
57 60 62 62 60 60 59 61 61 61 61 62 63 64 65 66 66 66 68 70 69 69 71 69 69 70 72 72 71 71 72 73 73 73 74 74 74 74 75 75 72 68 66 66 66 66 68 69 70 71 72 74 75 77 78 78 78 77 75 72 70 70 71 71 70 69 69 68 68 69 69 69 69 69 69 69 69 69 69 69 69 70 71 72 72 72
60 62 64 65 64 62 60 61 62 62 62 63 65 66 68 69 70 70 72 73 73 74 73 70 69 72 72 70 69 70 72 73 74 74 75 75 75 75 75 75 74 69 66 66 67 67 68 68 69 71 74 75 76 77 77 78 78 77 76 75 73 72 72 72 72 71 71 69 69 69 70 70 70 71 71 71 71 70 70 70 71 72 73 74 74 73
61 62 64 66 66 63 59 58 60 61 62 63 65 67 68 69 70 72 72 72 73 74 71 68 70 72 71 69 69 70 71 71 72 73 73 73 73 73 73 73 73 72 69 68 68 69 71 73 73 74 77 77 76 76 76 76 76 76 76 75 74 72 72 71 71 71 71 70 69 69 69 70 70 71 72 72 72 71 71 72 72 74 75 75 74 73
59 59 60 63 64 64 62 60 61 62 61 62 64 66 68 69 69 70 71 71 72 73 70 70 72 72 70 70 69 67 67 67 67 67 67 68 68 68 68 69 70 71 72 71 73 74 75 76 76 77 77 76 75 75 74 74 74 74 74 73 72 71 70 70 69 69 69 70 70 69 69 70 70 71 72 72 72 72 73 73 74 75 75 74 73 72
58 57 58 59 61 62 63 63 64 64 64 64 64 65 67 68 69 69 69 70 71 72 72 72 73 73 73 72 71 69 68 67 66 65 63 62 62 61 61 63 64 66 68 69 71 72 72 73 73 73 73 72 71 71 71 71 71 70 70 69 68 68 68 68 68 68 69 69 70 70 70 70 71 71 72 72 72 72 73 73 74 75 74 73 72 71
58 57 57 59 60 61 62 63 63 64 65 66 66 65 66 67 67 66 66 67 68 70 71 72 71 72 72 73 73 73 73 72 70 70 69 68 67 65 63 62 62 62 63 64 65 66 67 68 68 68 68 67 67 67 68 68 68 68 68 68 68 69 70 70 71 71 71 71 70 70 70 70 71 71 72 72 72 72 73 73 73 73 72 72 70 69
58 58 59 60 59 59 61 62 62 63 65 66 66 65 64 62 61 60 61 62 63 64 66 66 66 67 68 68 68 68 68 68 68 67 68 69 69 69 67 65 63 62 62 62 63 64 65 66 66 67 67 67 67 68 68 68 68 69 69 69 69 69 69 69 70 70 70 70 69 69 70 71 71 72 73 72 72 72 71 72 72 72 71 70 68 67
58 58 59 59 58 56 57 59 60 61 62 63 63 61 58 56 55 55 56 56 57 58 60 61 62 63 64 63 62 63 63 63 62 61 61 62 64 64 64 63 63 63 63 63 63 64 66 67 68 68 69 69 69 69 69 69 69 68 68 68 67 67 66 66 66 67 67 67 67 68 70 70 71 71 71 70 70 70 71 71 71 70 69 67 65 64
58 57 57 58 56 53 54 55 57 58 59 59 58 56 54 53 52 51 52 52 52 53 55 56 57 58 59 59 59 59 60 60 59 59 59 61 63 63 63 63 64 65 65 65 65 65 67 68 69 69 69 69 69 69 69 68 68 67 67 67 66 66 65 64 64 63 64 64 65 67 68 68 68 68 69 70 70 71 71 71 70 68 66 64 63 64
56 56 55 56 55 52 52 54 54 55 56 55 54 52 51 50 50 49 50 51 52 53 53 54 55 55 56 57 57 57 57 58 59 60 62 63 64 65 65 66 67 68 68 67 67 67 68 68 69 69 69 69 70 69 68 68 67 66 66 66 65 65 64 63 63 62 63 63 65 66 67 67 68 68 69 69 70 70 70 68 67 65 64 63 63 64
55 55 55 56 56 54 53 54 54 54 54 52 50 50 50 50 50 50 51 52 53 54 54 54 55 55 56 56 57 58 58 59 60 61 63 64 65 66 68 69 69 70 69 69 69 69 70 70 70 70 70 70 71 70 69 68 68 66 66 65 65 65 65 65 65 65 65 65 66 67 67 67 67 67 67 67 68 68 67 66 66 65 64 63 64 65
55 55 56 57 57 56 55 55 55 54 53 51 50 51 51 51 52 52 53 54 53 53 53 54 53 54 55 56 58 59 60 60 60 61 64 66 67 67 68 68 69 69 69 70 72 73 73 72 71 71 71 71 71 71 70 69 69 68 67 68 68 68 68 68 68 67 67 67 67 67 66 66 65 66 66 67 67 67 67 67 67 66 64 64 64 65
55 55 56 57 58 57 57 57 56 54 52 51 51 51 51 52 53 54 54 53 52 51 51 52 52 53 55 57 58 59 59 59 59 60 64 68 71 73 74 74 73 73 73 74 75 76 75 74 73 72 71 71 71 72 71 71 70 70 69 69 70 70 70 70 70 69 69 69 68 67 66 66 66 66 67 68 69 69 69 68 67 65 63 62 63 63
56 56 56 57 58 58 57 56 55 55 53 51 51 52 52 52 53 54 53 51 50 50 51 52 53 54 55 56 57 58 59 59 58 58 60 63 66 70 73 75 77 78 79 79 79 79 78 77 76 75 74 74 74 75 75 74 74 73 72 71 72 72 72 73 73 73 73 72 71 70 70 69 69 69 69 69 69 69 68 66 64 62 61 61 61 62
57 57 57 57 58 58 57 55 54 54 54 53 53 52 52 52 53 55 56 54 51 51 52 53 54 55 56 56 57 58 60 60 58 56 57 59 60 61 63 65 68 70 71 74 76 78 79 81 81 82 82 82 81 81 81 80 79 79 78 77 78 78 78 77 77 77 76 76 75 75 73 72 71 69 68 67 66 65 64 63 62 61 61 61 61 62
58 58 58 58 58 57 57 56 55 55 55 54 54 53 52 52 53 55 58 56 53 53 54 55 56 56 56 56 57 57 58 59 56 53 54 57 57 57 58 59 61 62 62 63 65 67 70 74 76 79 83 86 87 89 90 89 88 88 87 86 85 85 84 84 83 83 82 81 80 79 77 75 72 70 68 67 65 65 64 64 64 63 63 63 63 63
59 59 59 59 58 57 57 56 56 57 56 56 55 54 54 53 53 55 57 55 53 53 55 56 56 57 56 56 57 58 59 59 56 52 51 54 55 56 58 59 60 61 62 62 62 61 61 62 64 66 70 74 78 82 86 90 92 93 94 94 94 93 92 91 90 89 87 85 83 81 80 78 76 74 72 70 69 68 67 67 66 66 65 65 65 65
60 60 59 59 58 58 58 57 56 56 57 56 56 55 56 55 55 56 58 57 54 53 54 56 57 57 58 58 59 59 60 62 61 57 54 54 54 56 59 60 61 61 62 62 61 61 60 58 57 58 59 61 63 65 69 72 76 80 84 87 90 92 93 94 93 92 91 88 85 83 80 78 76 74 73 72 71 70 69 68 67 67 67 67 67 66
60 60 60 60 59 59 59 58 57 57 57 57 57 56 57 57 57 57 59 59 57 56 55 57 59 59 59 59 60 60 60 61 62 61 59 57 56 57 58 59 60 60 60 60 59 59 57 55 53 54 55 56 58 59 60 61 62 64 66 69 72 75 79 82 84 86 87 87 86 84 81 78 76 74 72 70 69 68 67 67 66 66 67 67 67 68
61 61 61 61 61 61 60 60 59 59 59 59 58 57 58 58 59 60 60 60 59 59 58 59 60 60 60 60 60 61 60 60 61 61 61 59 59 58 57 57 58 58 58 58 56 55 54 51 49 49 50 52 55 56 57 57 57 57 58 60 61 62 64 66 69 71 74 76 78 79 78 77 76 74 72 70 68 67 66 66 66 66 66 67 67 68
62 62 62 62 63 62 61 60 60 61 61 60 59 58 58 59 61 63 62 61 61 62 62 61 61 62 62 62 61 61 61 60 59 60 60 59 59 58 57 58 59 60 59 57 54 51 49 47 46 46 47 49 52 53 54 54 53 53 54 54 54 54 55 56 57 58 60 62 64 66 68 70 72 73 72 71 69 68 67 67 67 67 67 67 67 68
63 63 63 63 64 64 62 60 60 62 62 61 60 59 59 60 61 63 64 63 62 62 63 63 62 62 63 63 62 62 61 60 59 59 59 59 58 58 58 59 61 62 60 56 50 46 44 44 43 43 45 47 49 50 50 50 50 49 49 49 48 48 47 47 47 48 48 50 52 54 57 60 64 67 69 70 70 70 69 69 68 68 68 68 68 68
64 64 64 64 63 64 63 61 61 62 61 60 59 60 60 61 61 61 63 63 62 62 62 62 62 61 61 62 62 61 61 60 59 58 58 58 58 58 58 59 61 62 59 52 45 41 40 40 40 41 44 46 47 47 46 46 46 45 43 42 42 40 39 39 39 40 40 41 42 44 47 50 55 59 63 66 68 69 69 69 70 69 69 69 68 68
65 65 65 65 64 64 63 62 63 64 62 60 58 59 60 61 61 61 62 62 62 62 61 62 61 61 60 60 61 60 59 58 57 56 56 57 57 57 57 59 60 58 53 46 40 38 37 37 39 42 43 42 42 41 41 41 41 39 36 35 34 33 33 33 34 34 34 35 36 38 40 42 46 50 55 59 62 65 67 68 69 69 69 69 69 69
67 66 66 66 66 66 64 63 64 65 64 62 60 60 61 61 61 62 62 62 63 62 62 62 62 61 60 60 59 59 57 56 55 54 54 55 55 54 56 59 58 53 47 42 39 37 36 37 39 40 39 36 35 35 35 35 35 33 30 28 29 29 29 30 30 30 31 31 32 34 35 37 40 43 46 51 54 57 60 62 64 65 65 66 66 67
68 68 68 68 68 68 68 67 66 65 64 64 63 63 63 63 63 62 62 62 62 62 62 62 63 62 61 59 58 58 56 54 54 54 53 53 53 52 54 56 54 49 43 40 37 36 37 38 38 35 32 31 30 30 29 29 29 27 26 26 26 26 27 28 28 28 29 29 30 31 32 33 35 37 39 42 45 48 51 53 55 56 58 59 60 61
69 69 70 70 70 70 70 70 70 69 66 64 65 66 67 67 66 65 64 63 63 62 62 62 61 61 61 59 58 57 55 53 53 53 53 52 50 50 53 54 51 45 41 38 36 37 38 37 34 31 29 27 26 25 25 25 25 25 25 25 26 26 26 27 27 27 27 28 28 29 29 30 31 33 34 36 37 39 41 43 45 46 48 50 51 52
70 70 70 72 73 73 73 73 74 74 72 69 68 69 69 69 70 69 67 65 64 64 63 62 60 59 58 58 57 56 55 53 52 52 51 50 49 49 51 52 48 43 38 36 36 37 35 32 30 28 27 25 24 24 24 24 24 24 25 25 25 25 25 26 26 26 26 26 26 26 26 27 27 28 30 31 32 33 35 36 37 39 40 42 43 44
70 70 72 74 75 75 76 76 76 77 75 73 72 72 71 71 71 71 69 67 66 64 64 63 61 59 57 55 53 54 54 52 51 51 50 48 46 47 50 50 47 41 36 36 36 34 30 28 27 26 25 24 24 23 23 23 23 24 25 25 25 25 25 25 25 25 25 24 24 24 25 25 25 25 26 27 28 30 31 32 33 35 36 38 39 40
Wind_Direction
323 321 320 319 317 317 316 315 316 315 314 314 313 313 312 312 311 308 307 307 304 304 306 301 300 306 304 296 294 294 294 297 297 292 289 289 289 288 288 286 284 282 279 275 275 276 275 274 272 271 270 268 268 267 267 266 266 265 265 265 265 264 264 264 265 265 265 264 264 264 263 263 262 262 263 263 264 264 263 263 263 263 263 264 265 265
323 321 320 320 319 319 318 317 317 315 314 314 313 314 313 311 310 308 306 306 305 304 306 302 300 307 308 301 300 298 297 300 299 294 294 293 291 290 289 287 286 285 284 282 282 281 278 275 274 273 273 272 271 269 267 266 265 265 266 266 266 265 265 265 264 264 264 264 264 264 264 264 264 264 265 265 264 263 263 262 263 263 264 264 264 264
321 320 320 320 320 319 318 318 316 314 313 312 311 311 310 308 307 307 306 306 306 305 308 304 302 312 317 309 306 302 302 305 301 297 298 297 295 294 291 290 289 288 287 286 285 284 283 282 279 278 277 276 274 271 270 269 268 268 267 266 265 265 265 265 265 265 265 265 265 265 265 265 266 266 266 265 264 264 263 263 263 263 263 264 264 264
320 320 318 318 317 316 316 314 312 312 311 311 310 310 310 309 308 309 308 309 310 310 312 308 305 316 323 316 312 310 311 311 305 304 306 304 302 300 298 297 295 293 291 290 289 287 286 285 283 282 281 278 276 275 274 272 270 268 266 265 265 266 267 267 268 267 267 266 266 266 266 266 266 266 266 265 265 264 264 263 263 263 263 264 264 265
319 319 317 316 315 314 314 312 311 312 312 313 312 312 313 311 310 312 311 311 313 315 316 312 308 314 322 317 313 314 315 313 309 309 311 309 307 305 303 303 301 299 297 295 293 289 286 284 282 280 278 276 276 276 274 272 269 268 267 267 268 268 268 268 267 266 266 266 266 266 266 267 267 267 266 265 264 263 263 263 263 264 264 266 267 268
318 317 316 315 315 314 314 313 312 312 313 314 313 313 314 313 312 313 313 313 313 315 316 314 310 310 314 320 318 316 316 314 312 312 312 311 309 306 305 306 305 303 302 301 299 295 292 287 283 280 277 275 274 274 273 271 270 270 271 270 270 269 267 266 266 266 266 266 266 266 266 267 267 266 265 264 263 263 263 264 265 266 267 268 269 269
317 317 316 315 315 315 314 313 313 312 313 314 312 313 313 313 313 313 313 312 312 313 314 314 313 308 308 319 322 318 317 315 313 313 313 312 310 308 308 308 307 305 303 303 303 301 297 292 288 285 281 279 276 274 273 273 274 275 273 271 268 266 266 266 266 267 267 267 267 267 266 266 266 266 266 264 264 264 264 265 266 268 269 269 270 270
316 316 315 315 314 313 312 312 312 312 312 313 312 311 312 311 310 311 310 309 310 309 309 314 314 307 305 313 321 319 318 316 315 313 313 313 312 311 311 308 306 304 302 302 304 303 298 293 291 289 286 283 280 278 276 275 274 272 269 267 266 265 265 266 267 267 267 267 267 267 267 266 266 267 266 264 264 265 265 266 268 269 269 269 270 270
314 314 312 313 313 311 310 310 310 310 310 310 310 309 309 308 307 308 307 307 308 305 307 313 311 304 302 308 317 321 320 317 315 313 312 312 312 312 310 308 305 303 301 300 300 299 296 292 291 290 289 287 285 283 280 277 273 269 266 264 263 263 264 267 268 268 267 267 267 267 267 267 267 267 266 265 266 266 267 267 268 268 269 269 269 270
310 312 310 310 310 307 307 307 306 307 307 306 305 306 306 304 303 305 303 305 304 302 306 312 307 302 301 303 314 320 320 317 312 310 308 308 309 310 309 306 303 301 300 299 297 295 293 291 290 289 289 288 286 284 282 280 278 274 269 265 262 262 264 267 269 269 269 269 268 268 269 269 269 268 267 266 267 268 268 268 269 269 269 268 268 269
306 308 307 307 306 304 304 303 302 303 303 301 302 303 303 301 301 301 300 302 300 299 305 307 303 301 298 300 311 316 315 314 308 306 304 303 306 307 306 303 300 299 298 296 294 291 290 289 288 287 286 285 283 282 282 281 279 276 272 269 267 265 266 269 270 270 270 269 269 269 269 269 269 269 268 268 269 268 268 268 268 268 268 268 268 269
302 302 303 303 302 302 300 299 298 299 299 299 300 300 299 299 299 298 298 299 296 298 303 302 300 298 294 299 309 311 310 308 304 303 300 298 299 300 300 298 296 296 295 293 290 288 287 287 286 283 281 280 279 279 279 279 278 276 274 272 270 270 270 271 271 271 270 269 270 269 268 268 268 268 268 269 269 268 269 268 268 267 268 268 269 269
298 298 298 299 299 299 297 296 296 296 296 296 297 297 297 297 297 297 297 296 294 297 300 299 297 295 294 300 307 307 305 303 301 299 295 292 290 288 287 288 290 291 290 288 287 286 285 285 284 279 276 275 275 276 276 276 276 276 275 274 272 271 271 270 270 270 271 271 271 270 269 268 267 267 268 268 269 269 269 269 268 268 268 268 268 269
298 297 295 295 295 294 293 293 293 293 294 294 295 295 294 295 297 296 295 293 293 296 298 296 294 294 296 302 304 303 302 302 300 295 290 286 281 277 275 278 282 284 284 284 284 283 283 284 282 277 272 272 273 273 273 274 275 274 274 274 274 273 272 271 270 269 269 269 269 269 269 268 268 268 269 269 269 269 269 269 268 268 268 268 269 269
299 299 298 295 294 293 293 292 293 293 293 293 294 294 293 295 296 294 292 292 293 294 293 292 292 293 296 300 300 300 300 299 295 289 284 280 277 276 275 275 277 279 280 282 283 283 283 283 281 276 272 270 271 272 272 273 273 273 272 272 272 272 272 272 271 270 269 269 268 268 268 268 268 268 268 268 268 268 269 269 269 268 268 268 268 268
297 300 300 297 295 295 294 294 294 294 294 294 294 294 294 294 292 291 292 292 293 292 289 289 290 291 294 295 295 295 294 293 290 287 285 284 283 282 281 279 279 279 280 282 283 284 284 284 282 278 274 271 271 272 272 272 273 272 272 271 270 270 271 271 271 271 271 270 269 268 267 267 267 267 267 268 268 268 268 268 268 268 268 268 268 268
295 297 298 297 296 296 296 296 295 295 296 296 295 294 293 292 291 292 292 292 292 291 288 288 288 290 292 291 290 291 291 290 289 289 289 288 287 285 283 281 280 279 280 280 281 282 283 283 282 280 278 275 273 272 271 271 272 272 272 271 270 269 269 270 269 269 269 269 269 268 268 267 267 267 267 267 267 267 268 268 269 269 268 268 268 268
294 294 295 295 295 296 295 295 295 296 297 296 295 293 293 292 292 293 293 292 291 290 288 288 289 290 290 288 288 290 290 289 289 289 290 290 288 285 283 280 279 278 277 277 277 278 279 280 279 279 278 276 274 272 270 270 270 270 271 271 270 269 268 268 268 267 267 267 267 267 267 267 267 266 266 267 267 267 268 268 269 269 269 269 268 268
295 293 292 293 294 295 295 295 297 298 296 294 294 294 294 293 292 292 291 290 289 289 288 289 288 288 287 288 289 289 289 288 289 289 289 289 288 287 284 281 278 276 274 273 273 273 274 275 275 275 276 275 274 273 272 271 271 270 270 271 271 270 268 267 267 266 266 266 266 266 266 266 266 266 265 266 266 267 267 268 268 268 268 268 268 268
296 295 294 294 294 294 295 297 298 297 296 295 295 295 294 293 292 290 288 288 288 288 287 287 287 286 286 288 288 288 288 288 288 288 287 287 286 286 285 283 281 277 274 271 270 269 269 270 271 271 272 273 274 273 273 272 271 270 270 270 271 271 269 268 266 266 265 265 264 264 265 265 266 266 266 266 266 267 268 268 268 268 267 267 267 267
297 296 296 296 295 295 296 297 296 296 296 296 295 295 294 292 291 288 287 287 286 285 285 285 285 284 285 287 287 287 287 287 286 286 285 285 285 285 285 285 284 281 278 275 271 269 267 266 267 268 270 271 271 272 272 271 271 270 269 269 269 269 269 268 267 266 265 264 264 264 264 265 265 266 266 266 266 267 267 268 269 268 268 267 267 267
298 297 297 297 297 297 297 296 295 295 294 294 293 293 292 290 289 288 287 286 285 284 284 284 284 283 285 286 286 286 286 285 285 285 284 283 283 283 284 284 284 283 281 279 276 273 270 268 267 267 267 268 269 269 270 271 271 270 269 269 269 269 268 267 267 267 266 266 265 264 264 264 265 265 265 265 265 266 266 267 268 268 268 268 268 268
299 298 298 298 298 298 297 296 295 294 293 292 291 291 290 288 288 286 286 287 286 284 285 285 283 284 286 287 286 286 285 285 284 283 283 282 281 281 282 282 282 282 280 279 277 275 273 272 270 268 267 267 267 267 268 269 269 269 269 269 269 270 269 268 267 266 266 267 266 265 264 264 264 264 264 264 264 264 265 266 267 268 268 268 268 268
299 299 299 299 298 297 297 297 296 294 293 291 290 289 288 288 287 287 287 287 287 287 288 286 284 286 288 287 286 285 285 285 284 283 283 282 282 281 281 280 281 280 278 276 275 274 273 272 271 270 270 269 269 268 268 268 268 269 269 269 270 270 269 268 267 266 266 266 266 266 265 264 264 263 263 262 262 263 264 266 267 267 267 267 267 267
301 301 302 301 301 301 299 297 295 293 293 292 292 291 290 290 289 289 289 288 287 289 289 286 285 287 287 286 286 285 285 284 284 283 283 282 281 280 280 279 279 278 276 274 273 272 272 272 272 272 272 272 272 271 270 269 269 268 269 269 269 268 267 266 266 266 265 264 264 264 264 263 263 262 261 261 262 262 264 265 266 266 266 266 266 267
303 304 305 305 305 306 305 303 299 297 295 294 293 293 293 293 292 291 290 288 287 288 287 285 285 286 285 284 285 284 283 283 282 282 282 281 281 280 279 278 277 276 275 273 272 272 272 272 273 273 273 273 272 271 270 269 268 268 268 269 268 267 266 266 265 265 265 264 263 262 262 261 261 260 260 260 261 262 264 265 265 265 264 265 266 267
306 307 307 306 306 307 308 306 304 302 300 297 296 296 295 295 294 292 290 289 288 287 286 285 284 283 282 282 281 280 280 279 279 279 279 279 279 279 278 278 277 276 276 274 273 273 272 272 272 272 272 271 271 270 270 269 268 268 267 267 267 267 267 266 266 266 265 264 263 262 261 261 260 260 260 261 262 263 264 264 264 263 263 265 267 268
307 307 306 305 306 308 308 306 306 304 302 301 300 299 298 297 296 294 292 290 289 288 287 287 285 283 283 282 281 280 279 278 278 277 277 277 276 276 276 277 277 277 277 277 276 275 275 274 273 273 272 272 271 270 269 269 268 268 267 267 267 268 268 268 268 267 265 264 262 261 261 261 261 261 262 263 264 264 264 264 263 263 265 266 268 268
308 308 307 306 307 308 308 307 306 304 302 302 302 301 301 299 297 296 294 293 292 291 291 291 290 288 288 286 285 284 283 282 281 280 279 278 277 276 276 276 277 278 278 278 278 278 278 277 277 276 276 275 275 274 273 271 270 270 269 269 269 269 269 268 267 266 264 262 261 261 261 262 262 263 264 264 264 264 264 264 265 266 267 268 268 269
309 309 308 307 308 308 307 306 305 304 303 303 303 302 302 300 298 298 297 297 297 297 296 296 295 293 292 291 290 290 289 288 287 286 286 285 283 281 280 279 279 280 279 278 278 278 278 278 277 277 277 277 276 276 275 274 273 272 271 270 270 269 268 267 265 263 262 262 261 261 262 262 263 263 264 264 264 265 266 267 267 268 268 269 270 269
311 311 310 308 308 309 307 305 304 303 303 303 303 303 302 301 301 301 301 301 301 300 300 299 298 297 297 296 295 293 292 291 290 289 288 288 287 285 283 281 280 280 279 278 278 278 278 278 277 276 276 276 276 275 275 274 273 272 272 271 270 270 268 266 264 262 261 261 261 261 261 262 263 264 265 266 267 267 267 268 268 269 270 272 271 269
312 312 311 310 309 310 309 307 306 306 305 305 304 304 304 304 303 303 303 303 303 304 305 305 305 305 304 302 299 295 292 290 289 288 287 286 286 285 283 282 280 279 278 278 277 277 277 276 276 275 275 275 274 273 272 271 270 269 269 269 269 268 267 266 265 264 263 263 262 263 264 265 266 267 267 268 268 268 268 268 269 271 273 273 270 268
314 313 313 312 312 313 312 311 311 309 308 306 305 304 304 304 303 304 305 306 308 310 311 312 312 311 309 306 303 299 294 289 287 287 286 286 285 283 283 281 279 278 278 279 278 278 277 276 274 273 273 272 271 270 268 267 267 266 265 265 265 265 266 266 266 266 266 267 267 267 268 268 268 268 268 268 268 268 269 270 272 274 274 271 268 266
317 316 317 317 317 317 316 314 312 311 309 308 307 306 306 305 305 307 308 310 313 315 315 315 314 312 310 308 307 305 303 298 293 289 286 285 284 283 282 281 280 278 278 278 279 278 277 275 273 271 270 269 268 267 266 266 266 265 265 265 265 265 266 266 267 268 269 269 269 269 269 268 269 269 269 269 270 270 272 273 274 274 272 268 266 265
320 320 320 319 319 319 318 316 314 313 312 311 310 308 308 309 310 311 312 314 317 317 316 315 314 313 312 311 310 309 308 305 301 295 290 288 286 284 282 281 280 279 278 277 277 276 275 273 271 270 269 268 268 267 266 266 266 266 266 266 267 267 267 267 268 269 270 270 269 269 268 269 270 270 271 272 272 273 273 274 273 271 268 265 263 263
321 320 320 319 319 319 318 317 317 316 315 313 311 311 312 313 314 313 313 315 318 318 316 315 315 315 315 314 314 312 310 308 306 302 297 294 291 289 287 285 283 281 280 278 276 275 273 273 272 270 269 269 268 268 267 267 266 266 266 267 268 268 268 269 269 269 269 269 269 269 270 271 272 272 273 273 273 272 272 270 268 266 264 262 262 262
322 321 321 321 320 319 319 319 318 317 316 315 314 315 315 316 316 314 313 315 318 317 315 315 316 316 316 316 316 314 312 310 309 305 300 297 296 294 293 292 290 288 286 283 281 278 276 275 274 273 272 271 270 269 269 268 267 267 267 266 267 268 268 269 269 269 269 269 269 270 271 272 273 273 272 271 270 270 268 267 265 264 263 262 262 262
323 323 323 322 321 320 320 319 319 317 317 316 317 317 317 317 317 315 314 317 318 316 315 316 316 316 316 316 315 314 311 310 311 307 301 298 297 297 297 296 295 294 292 289 286 284 281 279 278 277 276 274 273 272 271 270 269 268 268 267 267 267 267 268 269 269 269 270 270 271 271 272 272 271 270 269 269 268 267 266 265 264 264 263 263 262
323 323 323 322 321 321 320 320 320 319 318 317 317 317 316 316 315 314 314 316 317 315 315 315 315 314 314 314 313 313 312 312 313 312 305 300 299 299 299 298 297 296 295 293 291 288 286 284 282 281 280 279 277 275 274 272 271 270 269 269 268 267 267 267 268 268 268 268 269 270 270 270 270 269 269 268 268 267 266 265 265 264 263 262 261 261
323 323 322 321 321 320 320 320 320 318 317 316 316 315 315 314 314 313 312 314 315 313 313 312 312 312 313 313 313 314 314 314 315 315 311 306 302 301 301 301 300 299 298 296 294 292 289 287 285 284 283 284 283 281 279 276 274 273 272 270 269 268 268 267 267 267 267 267 267 267 268 268 268 268 267 266 266 265 265 264 264 263 262 260 260 260
323 322 321 320 320 320 320 320 319 317 316 315 316 315 314 314 313 311 312 313 313 312 311 311 311 312 312 312 313 313 314 314 315 315 314 310 306 304 303 303 303 302 301 300 298 295 292 290 288 286 286 287 288 287 285 282 280 278 276 274 273 272 271 269 268 267 266 266 266 265 265 265 265 265 264 264 263 263 262 262 261 261 260 260 259 259
323 322 321 320 320 320 319 319 318 316 315 315 315 315 314 313 311 310 311 312 312 311 311 311 310 310 310 311 311 312 313 314 315 314 313 311 308 307 306 305 305 305 304 303 300 297 294 291 289 288 288 290 291 290 288 285 283 281 279 278 278 277 275 274 272 270 269 267 266 264 263 262 262 261 261 261 260 260 260 260 259 259 259 259 259 259
323 322 321 320 319 319 319 318 317 316 315 315 315 314 313 312 311 311 312 312 312 311 310 310 310 310 310 311 312 312 313 314 314 313 312 311 310 309 309 309 308 308 307 305 301 296 293 291 289 288 290 292 292 291 289 286 283 281 280 280 280 280 280 278 277 275 273 270 268 265 262 260 258 257 257 257 257 257 257 257 258 258 258 259 259 259
322 321 320 320 319 318 318 318 316 315 315 315 314 314 313 312 311 310 310 310 310 309 308 308 309 309 310 310 311 312 312 312 312 312 312 312 311 310 310 311 311 311 310 308 303 297 292 289 288 289 292 294 293 291 289 287 284 282 281 280 281 282 282 282 280 279 276 273 270 267 263 260 257 255 254 254 254 254 255 255 256 257 257 258 258 259
321 320 319 318 317 317 317 316 314 314 314 314 313 313 311 310 308 307 306 306 306 306 306 306 307 307 307 308 309 309 309 310 311 312 312 312 311 311 311 313 313 313 312 309 304 298 293 291 291 293 295 296 295 292 290 289 287 285 283 282 282 283 283 283 282 281 279 276 273 269 265 261 258 255 253 252 252 252 252 253 254 254 255 256 257 258
320 319 317 316 316 315 315 315 313 313 314 313 312 309 307 305 305 304 303 304 304 304 304 305 305 305 306 306 307 307 308 309 310 311 312 311 311 312 313 315 315 315 313 310 305 299 296 294 296 298 299 298 295 293 292 291 289 287 285 284 285 286 287 286 285 283 281 279 276 272 269 265 261 258 256 254 253 253 252 252 253 254 254 255 256 257
319 317 316 315 314 314 314 313 313 313 314 312 309 306 303 303 303 304 304 305 305 305 305 305 305 305 306 306 306 307 308 308 309 310 311 311 311 313 315 317 317 316 314 311 306 302 299 299 301 302 300 298 295 294 293 292 290 289 288 287 289 290 291 291 290 288 285 282 279 276 272 268 265 263 260 259 258 257 257 256 256 256 257 257 257 257
317 316 314 314 313 313 314 313 312 312 313 311 308 306 305 305 305 306 306 306 306 305 305 305 305 305 305 306 306 307 308 308 309 310 312 312 312 314 317 318 317 316 315 311 307 304 304 304 305 304 301 298 296 295 294 292 290 290 291 291 292 293 293 293 292 290 287 284 281 278 275 272 269 267 265 263 262 261 261 260 260 260 260 260 260 260
316 315 314 313 313 313 313 312 312 311 311 310 308 308 309 309 309 309 308 307 306 305 304 303 304 305 306 306 307 307 308 309 310 311 312 312 312 315 318 319 318 316 314 310 308 307 308 308 307 305 303 301 299 298 297 294 292 292 292 291 291 292 293 294 294 293 291 287 284 280 278 275 272 270 268 267 266 265 264 263 262 262 261 261 261 261
316 315 314 313 313 314 314 313 313 312 312 312 311 310 310 311 310 310 309 308 306 305 304 303 303 303 305 306 307 307 308 309 309 310 311 312 312 315 319 321 319 316 313 311 311 311 311 310 309 308 307 307 307 305 302 299 296 294 292 290 290 291 292 294 295 295 295 293 288 284 281 278 276 273 270 269 267 266 265 265 264 263 262 262 262 261
316 315 314 314 314 315 315 314 314 313 313 313 312 311 311 310 309 308 308 307 306 305 304 303 303 303 303 304 306 307 307 308 308 309 310 311 312 315 320 321 319 315 312 312 313 313 312 311 310 310 312 313 313 311 308 306 303 300 296 293 292 292 292 293 293 294 295 295 292 287 283 280 278 277 274 271 269 268 267 266 265 264 264 263 262 262